Home   Weather   Aalst   Past weeks
Flag for Belgium

Past Weather in Aalst, East Flanders, Belgium — Yesterday and Last 2 Weeks

Now
46 °F

Cool.


Feels Like: 42 °F
Forecast: 48 / 40 °F
Wind: 9 mph from Southwest

Location: Munte

Current Time: Feb 17, 2020 at 11:00:24 am

Latest Report: Feb 17, 2020 at 10:00 am


Visibility: 9 mi

Pressure: 29.89 "Hg

Humidity: 77%

Dew Point: 40 °F

Location of AalstLocation

Past Weather in Aalst — Graph

°F

Aalst Temperature Yesterday

Maximum temperature yesterday: 62 °F (at 5:00 pm)
Minimum temperature yesterday: 47 °F (at 7:00 pm)
Average temperature yesterday: 54 °F

High & Low Weather Summary for the Past Weeks

 TemperatureHumidityPressure
High62 °F (Feb 16, 5:00 pm)100% (Feb 5, 4:00 am)30.65 "Hg (Feb 5, 4:00 am)
Low32 °F (Feb 7, 8:00 am)49% (Feb 11, 1:00 pm)29.23 "Hg (Feb 9, 9:00 pm)
Average46 °F78%29.94 "Hg
* Reported Feb 2 9:00 am — Feb 17 9:00 am, Aalst. Weather by CustomWeather, © 2020

Note: Actual official high and low records may vary slightly from our data, if they occured in-between our weather recording intervals... More about our weather records

Aalst Weather History for the Previous 24 Hours

Scroll right to see more
 ConditionsComfort  
Time TempWeatherWind HumidityBarometerVisibility
9:00 am
Mon, Feb 17
44 °FQuite cool.8 mph78%29.89 "Hg12 mi
8:00 am44 °FQuite cool.6 mph79%29.88 "Hg11 mi
7:00 am44 °FQuite cool.7 mph77%29.88 "Hg11 mi
6:00 am44 °FQuite cool.7 mph78%29.88 "Hg10 mi
5:00 am44 °FQuite cool.7 mph80%29.89 "Hg10 mi
4:00 am45 °FQuite cool.6 mph75%29.88 "Hg10 mi
3:00 am46 °FCool.8 mph69%29.87 "Hg9 mi
2:00 am46 °FCool.10 mph70%29.85 "Hg10 mi
1:00 am48 °FCool.8 mph71%29.80 "Hg11 mi
12:00 am48 °FCool.10 mph74%29.76 "Hg12 mi
11:00 pm
Sun, Feb 16
47 °FCool.9 mph82%29.72 "Hg12 mi
10:00 pm47 °FCool.9 mph83%29.68 "Hg12 mi
9:00 pm47 °FCool.8 mph86%29.67 "Hg12 mi
8:00 pm47 °FLight rain. Overcast.8 mph88%29.65 "Hg7 mi
7:00 pm47 °FLight rain. Overcast.7 mph91%29.62 "Hg5 mi
6:00 pm50 °FRain. Cloudy.13 mph93%29.54 "Hg1 mi
5:00 pm62 °FCool.16 mph68%29.44 "Hg12 mi
4:00 pm61 °FCool.15 mph70%29.44 "Hg12 mi
3:00 pm60 °FCool.15 mph71%29.44 "Hg12 mi
2:00 pm60 °FCool.17 mph69%29.47 "Hg12 mi
1:00 pm60 °FCool.15 mph69%29.50 "Hg12 mi
12:00 pm60 °FCool.16 mph69%29.55 "Hg12 mi
11:00 am58 °FCool.15 mph71%29.57 "Hg12 mi
Weather by CustomWeather, © 2020

See weather overview

Advertising